TimeEDT,TemperatureF,Dew PointF,Humidity,Sea Level PressureIn,VisibilityMPH,Wind Direction,Wind SpeedMPH,Gust SpeedMPH,PrecipitationIn,Events,Conditions,WindDirDegrees,DateUTC
12:54 AM,37.9,25.0,60,30.27,10.0,Calm,Calm,-,N/A,,Clear,0,2008-03-21 04:54:00
1:54 AM,37.9,24.1,57,30.27,10.0,NNW,5.8,-,N/A,,Clear,340,2008-03-21 05:54:00
2:54 AM,35.1,25.0,67,30.28,10.0,NNW,4.6,-,N/A,,Clear,340,2008-03-21 06:54:00
3:54 AM,30.9,25.0,79,30.28,10.0,SSW,3.5,-,N/A,,Clear,210,2008-03-21 07:54:00
4:54 AM,30.9,25.0,79,30.27,10.0,Calm,Calm,-,N/A,,Clear,0,2008-03-21 08:54:00
5:54 AM,28.0,26.1,92,30.30,10.0,Calm,Calm,-,N/A,,Clear,0,2008-03-21 09:54:00
6:54 AM,28.9,25.0,85,30.30,10.0,NW,4.6,-,N/A,,Clear,310,2008-03-21 10:54:00
7:54 AM,28.0,26.1,92,30.32,10.0,Calm,Calm,-,N/A,,Clear,0,2008-03-21 11:54:00
8:54 AM,34.0,28.0,79,30.32,10.0,Calm,Calm,-,N/A,,Clear,0,2008-03-21 12:54:00
9:54 AM,37.9,30.0,73,30.32,10.0,SE,3.5,-,N/A,,Clear,140,2008-03-21 13:54:00
10:54 AM,46.0,28.9,51,30.30,10.0,Calm,Calm,-,N/A,,Clear,0,2008-03-21 14:54:00
11:54 AM,51.1,27.0,39,30.27,10.0,Variable,6.9,-,N/A,,Clear,0,2008-03-21 15:54:00
12:54 PM,57.0,27.0,32,30.23,10.0,SSW,8.1,-,N/A,,Clear,200,2008-03-21 16:54:00
1:54 PM,60.1,28.0,30,30.19,10.0,SSE,8.1,-,N/A,,Clear,150,2008-03-21 17:54:00
2:54 PM,64.0,28.0,26,30.14,10.0,South,12.7,-,N/A,,Clear,180,2008-03-21 18:54:00
3:54 PM,64.0,27.0,25,30.12,10.0,South,9.2,18.4,N/A,,Clear,180,2008-03-21 19:54:00
4:54 PM,64.0,25.0,23,30.09,10.0,SSE,16.1,-,N/A,,Clear,160,2008-03-21 20:54:00
5:54 PM,62.1,25.0,24,30.08,10.0,South,15.0,20.7,N/A,,Clear,190,2008-03-21 21:54:00
6:54 PM,61.0,26.1,26,30.07,10.0,SSW,16.1,19.6,N/A,,Clear,210,2008-03-21 22:54:00
7:54 PM,57.0,26.1,30,30.08,10.0,SSW,12.7,-,N/A,,Clear,210,2008-03-21 23:54:00
8:54 PM,53.1,27.0,37,30.08,10.0,South,8.1,-,N/A,,Clear,190,2008-03-22 00:54:00
9:54 PM,53.1,28.0,38,30.08,10.0,SSW,9.2,-,N/A,,Clear,200,2008-03-22 01:54:00
10:54 PM,51.1,28.9,43,30.06,10.0,South,11.5,-,N/A,,Clear,190,2008-03-22 02:54:00
11:54 PM,48.9,28.9,46,30.06,10.0,South,4.6,-,N/A,,Clear,170,2008-03-22 03:54:00